TimeEST,TemperatureF,Dew PointF,Humidity,Sea Level PressureIn,VisibilityMPH,Wind Direction,Wind SpeedMPH,Gust SpeedMPH,PrecipitationIn,Events,Conditions,WindDirDegrees,DateUTC
12:53 AM,73.0,69.1,87,29.84,10.0,South,8.1,-,N/A,,Clear,170,2013-02-26 05:53:00
1:53 AM,72.0,69.1,91,29.81,10.0,South,6.9,-,N/A,,Mostly Cloudy,170,2013-02-26 06:53:00
2:53 AM,72.0,70.0,93,29.82,10.0,South,5.8,-,N/A,,Overcast,170,2013-02-26 07:53:00
3:53 AM,73.0,70.0,90,29.81,10.0,South,5.8,-,N/A,,Overcast,180,2013-02-26 08:53:00
4:53 AM,73.0,70.0,90,29.80,10.0,SSE,8.1,-,N/A,,Overcast,150,2013-02-26 09:53:00
5:53 AM,73.9,70.0,87,29.83,10.0,South,8.1,-,N/A,,Overcast,170,2013-02-26 10:53:00
6:53 AM,73.9,69.1,85,29.83,10.0,SSE,10.4,-,N/A,,Overcast,160,2013-02-26 11:53:00
7:53 AM,75.0,70.0,84,29.84,10.0,South,9.2,-,N/A,,Mostly Cloudy,170,2013-02-26 12:53:00
8:53 AM,78.1,70.0,76,29.85,10.0,South,17.3,25.3,N/A,,Partly Cloudy,170,2013-02-26 13:53:00
9:53 AM,82.0,69.1,65,29.85,10.0,South,18.4,26.5,N/A,,Clear,190,2013-02-26 14:53:00
10:53 AM,84.0,66.0,55,29.85,10.0,SSW,23.0,32.2,N/A,,Scattered Clouds,200,2013-02-26 15:53:00
11:53 AM,84.9,64.9,51,29.85,10.0,SSW,24.2,32.2,N/A,,Scattered Clouds,200,2013-02-26 16:53:00
12:53 PM,84.0,64.9,53,29.82,10.0,SSW,20.7,28.8,N/A,,Scattered Clouds,210,2013-02-26 17:53:00
1:53 PM,84.9,66.0,53,29.78,10.0,SSW,26.5,33.4,N/A,,Mostly Cloudy,210,2013-02-26 18:53:00
2:53 PM,84.0,66.0,55,29.78,10.0,SSW,18.4,32.2,N/A,,Overcast,210,2013-02-26 19:53:00
3:53 PM,82.9,68.0,60,29.78,10.0,SSW,17.3,24.2,0.00,,Overcast,210,2013-02-26 20:53:00
4:53 PM,80.1,68.0,67,29.80,10.0,SW,12.7,23.0,0.00,,Overcast,230,2013-02-26 21:53:00
5:53 PM,80.1,66.0,62,29.80,10.0,SW,8.1,-,N/A,,Overcast,220,2013-02-26 22:53:00
6:53 PM,79.0,66.0,64,29.82,10.0,SW,6.9,-,N/A,,Overcast,230,2013-02-26 23:53:00
7:53 PM,77.0,68.0,74,29.83,10.0,WSW,11.5,-,N/A,,Overcast,250,2013-02-27 00:53:00
8:53 PM,75.9,69.1,79,29.86,10.0,SW,9.2,-,N/A,,Overcast,230,2013-02-27 01:53:00
9:09 PM,75.2,69.8,83,29.86,10.0,WSW,8.1,-,0.00,,Overcast,250,2013-02-27 02:09:00
10:03 PM,73.4,69.8,88,29.87,10.0,SW,10.4,-,N/A,,Overcast,230,2013-02-27 03:03:00
10:24 PM,73.4,68.0,83,29.87,10.0,SW,8.1,-,N/A,,Scattered Clouds,230,2013-02-27 03:24:00
10:53 PM,72.0,66.9,84,29.88,10.0,WSW,8.1,-,N/A,,Clear,240,2013-02-27 03:53:00
11:18 PM,71.6,66.2,83,29.88,10.0,WSW,6.9,-,N/A,,Mostly Cloudy,240,2013-02-27 04:18:00
11:28 PM,71.6,66.2,83,29.88,10.0,WSW,5.8,-,N/A,,Scattered Clouds,240,2013-02-27 04:28:00
11:53 PM,70.0,64.9,84,29.88,10.0,WSW,5.8,-,N/A,,Partly Cloudy,250,2013-02-27 04:53:00